This is the latest recevied weather packets stored in our database for station/object KD4UFD. If no packets are shown the sender has not sent any weather packets the latest 10 day(s).
| Time | Temp. | Humidity | Pressure | Rain* | Wind** | Luminosity | Snow |
|---|---|---|---|---|---|---|---|
| 1777819023 | 12.78° C | 49% | 1021.7 hPa | 0 mm | - | 705 W/m² | - |
| 1777818720 | 13.33° C | 48% | 1021.4 hPa | 0 mm | - | 697 W/m² | - |
| 1777818416 | 12.78° C | 51% | 1021.6 hPa | 0 mm | - | 685 W/m² | - |
| 1777818113 | 12.22° C | 53% | 1021.4 hPa | 0 mm | - | 630 W/m² | - |
| 1777817810 | 12.78° C | 49% | 1021.4 hPa | 0 mm | - | 659 W/m² | - |
| 1777817508 | 12.22° C | 51% | 1021.6 hPa | 0 mm | - | 629 W/m² | - |
| 1777817203 | 11.67° C | 50% | 1021.6 hPa | 0 mm | - | 607 W/m² | - |
| 1777816902 | 12.78° C | 50% | 1021.3 hPa | 0 mm | - | 580 W/m² | - |
| 1777816598 | 11.67° C | 52% | 1021.3 hPa | 0 mm | - | 566 W/m² | - |
| 1777816295 | 12.22° C | 54% | 1021.4 hPa | 0 mm | - | 549 W/m² | - |
| 1777815992 | 11.67° C | 59% | 1021.3 hPa | 0 mm | - | 517 W/m² | - |
| 1777815690 | 11.67° C | 55% | 1021.2 hPa | 0 mm | - | 461 W/m² | - |
| 1777815387 | 11.67° C | 60% | 1021.6 hPa | 0 mm | - | 85 W/m² | - |
| 1777815084 | 11.67° C | 59% | 1021.6 hPa | 0 mm | - | 396 W/m² | - |
| 1777814780 | 12.22° C | 60% | 1021.6 hPa | 0 mm | - | 349 W/m² | - |
| 1777814477 | 11.67° C | 61% | 1021.2 hPa | 0 mm | - | 317 W/m² | - |
| 1777814174 | 11.67° C | 66% | 1021.4 hPa | 0 mm | - | 327 W/m² | - |
| 1777813871 | 11.11° C | 68% | 1021.6 hPa | 0 mm | - | 311 W/m² | - |
| 1777813569 | 11.11° C | 67% | 1021.3 hPa | 0 mm | - | 257 W/m² | - |
| 1777813267 | 11.11° C | 69% | 1021.4 hPa | 0 mm | - | 64 W/m² | - |
| 1777812963 | 11.11° C | 69% | 1021.3 hPa | 0 mm | - | 249 W/m² | - |
| 1777812661 | 11.11° C | 69% | 1021.5 hPa | 0 mm | - | 234 W/m² | - |
| 1777812357 | 10.56° C | 72% | 1021.5 hPa | 0 mm | - | 234 W/m² | - |
| 1777812055 | 10.56° C | 72% | 1021.4 hPa | 0 mm | - | 220 W/m² | - |
| 1777811754 | 10° C | 75% | 1021.2 hPa | 0 mm | - | 177 W/m² | - |
* Rain latest hour (hover to see other rain measurements)
** Current wind speed in m/s (hover to see current wind gust speed)